Location: Utrecht
(52.0917°N, 5.1178°E)
Time: 08:49:26
(UTC+02:00)

Tiangong 2 - Visible Passes

Search period start: 25 May 2017 00:00
Search period end: 04 June 2017 00:00
Orbit: 380 x 389 km, 42.8° (Epoch: 24 May)

Date Brightness Start Highest point End Pass type
(mag) Time Alt. Az. Time Alt. Az. Time Alt. Az.
25 May 3.3 23:48:07 10° SW 23:48:45 13° SSW 23:48:45 13° SSW visible
26 May 3.0 22:48:50 10° SSW 22:50:44 15° S 22:52:07 12° SE visible
27 May 2.9 23:25:22 10° SW 23:27:18 15° S 23:27:28 15° S visible
29 May 3.2 23:02:44 10° SW 23:04:26 14° S 23:05:37 12° SSE visible
31 May 3.4 22:40:23 10° SW 22:41:30 11° SSW 22:42:37 10° S visible
